Weather History for Moab, UT

Change the Weather History Date:

Tuesday, February 4, 2014

  Actual Average Record
Temperature  
Mean Temperature 29 °F 32 °F  
Max Temperature 36 °F 43 °F 64 °F (1953)
Min Temperature 22 °F 21 °F -2 °F (1930)
Degree Days  
Heating Degree Days 36 33  
Month to date heating degree days 150 135  
Since 1 July heating degree days 4193 3710  
Cooling Degree Days 0 0  
Month to date cooling degree days 0 0  
Year to date cooling degree days 0 0  
Moisture  
Dew Point 23 °F    
Average Humidity 74    
Maximum Humidity 100    
Minimum Humidity 47    
Precipitation  
Precipitation T in 0.01 in 0.25 in (1989)
Month to date precipitation 0.01 0.06  
Year to date precipitation 0.28 0.70  
Sea Level Pressure  
Sea Level Pressure 29.90 in    
Wind  
Wind Speed 7 mph (WNW)    
Max Wind Speed 17 mph    
Max Gust Speed 21 mph    
Visibility 9 miles    
Events Snow    
T = Trace of Precipitation, MM = Missing Value Source: NWS Daily Summary

Daily Weather History Graph

Daily Weather History Graph

Search for Another Location

Airport:

Trip Planner

Search our weather history database for the weather conditions in past years. The results will help you decide how hot, cold, wet, or windy it might be!

Date:

Astronomy

Feb. 04, 2014 Rise Set
Actual Time 7:22 AM MST 5:44 PM MST
Civil Twilight 6:54 AM MST 6:12 PM MST
Nautical Twilight 6:22 AM MST 6:43 PM MST
Astronomical Twilight 5:51 AM MST 7:15 PM MST
Moon 10:05 AM MST (2/4) 11:37 PM MST (2/4)
Length of Visible Light 11h 17m
Length of Day
10h 22m
Waxing Crescent, 29% of the Moon is Illuminated
Feb 4
Waxing Crescent
Feb 6
First Quarter
Feb 14
Full
Feb 22
Last Quarter
Mar 1
New

Hourly Weather History & Observations

Time (MST) Temp. Windchill Dew Point Humidity Pressure Visibility Wind Dir Wind Speed Gust Speed Precip Events Conditions
12:53 AM 28.0 °F - 26.1 °F 92% 29.84 in 10.0 mi Calm Calm - N/A   Overcast
1:53 AM 28.9 °F - 26.1 °F 89% 29.83 in 5.0 mi Calm Calm - 0.00 in Snow Light Snow
2:03 AM 28.0 °F - 26.1 °F 92% 29.79 in 2.5 mi Calm Calm - 0.00 in Snow Light Snow
2:18 AM 28.0 °F - 26.1 °F 92% 29.79 in 5.0 mi Calm Calm - 0.00 in Snow Light Snow
2:53 AM 28.0 °F - 27.0 °F 96% 29.83 in 4.0 mi Calm Calm - 0.00 in Snow Light Snow
3:53 AM 27.0 °F - 26.1 °F 96% 29.83 in 10.0 mi Calm Calm - 0.00 in   Mostly Cloudy
4:53 AM 27.0 °F - 26.1 °F 96% 29.84 in 8.0 mi Calm Calm - N/A   Overcast
5:28 AM 25.0 °F - 23.0 °F 92% 29.78 in 7.0 mi Calm Calm - N/A   Overcast
5:53 AM 24.1 °F 19.7 °F 21.9 °F 91% 29.86 in 8.0 mi WSW 3.5 mph - N/A   Mostly Cloudy
6:29 AM 25.0 °F - 24.1 °F 96% 29.79 in 8.0 mi Calm Calm - N/A   Mostly Cloudy
6:53 AM 26.1 °F - 24.1 °F 92% 29.86 in 10.0 mi Calm Calm - N/A   Overcast
7:49 AM 26.6 °F 21.2 °F 24.8 °F 93% 29.81 in 10.0 mi SW 4.6 mph - N/A   Overcast
7:53 AM 26.1 °F 20.5 °F 25.0 °F 96% 29.88 in 10.0 mi SW 4.6 mph - N/A   Overcast
8:53 AM 28.0 °F - 26.1 °F 92% 29.89 in 10.0 mi Calm Calm - N/A   Overcast
9:22 AM 28.0 °F 24.2 °F 26.1 °F 92% 29.83 in 10.0 mi NNW 3.5 mph - N/A   Mostly Cloudy
9:53 AM 28.9 °F 19.8 °F 27.0 °F 92% 29.92 in 10.0 mi NW 10.4 mph - N/A   Overcast
10:09 AM 28.9 °F 20.4 °F 27.0 °F 92% 29.85 in 9.0 mi NW 9.2 mph - N/A   Overcast
10:17 AM 28.9 °F 20.4 °F 27.0 °F 92% 29.86 in 10.0 mi NW 9.2 mph - N/A   Overcast
10:40 AM 28.9 °F 21.9 °F 27.0 °F 92% 29.86 in 10.0 mi WNW 6.9 mph - N/A   Overcast
10:53 AM 28.9 °F 19.8 °F 26.1 °F 89% 29.94 in 10.0 mi WNW 10.4 mph - N/A   Mostly Cloudy
11:27 AM 30.0 °F 21.7 °F 27.0 °F 88% 29.86 in 10.0 mi WNW 9.2 mph - N/A   Partly Cloudy
11:53 AM 30.9 °F 21.2 °F 27.0 °F 85% 29.93 in 10.0 mi NW 12.7 mph - N/A   Scattered Clouds
12:19 PM 30.9 °F 21.2 °F 27.0 °F 85% 29.86 in 10.0 mi WNW 12.7 mph - N/A   Mostly Cloudy
12:32 PM 32.0 °F 22.1 °F 27.0 °F 82% 29.85 in 10.0 mi West 13.8 mph - N/A   Scattered Clouds
12:53 PM 32.0 °F 23.0 °F 27.0 °F 82% 29.90 in 10.0 mi West 11.5 mph - N/A   Clear
1:53 PM 34.0 °F 24.6 °F 21.9 °F 61% 29.89 in 10.0 mi NW 13.8 mph - N/A   Partly Cloudy
2:53 PM 36.0 °F 27.1 °F 18.0 °F 48% 29.89 in 10.0 mi WNW 13.8 mph - N/A   Clear
3:53 PM 34.0 °F 25.0 °F 17.1 °F 50% 29.91 in 10.0 mi West 12.7 mph - N/A   Scattered Clouds
4:53 PM 32.0 °F 22.5 °F 19.0 °F 59% 29.94 in 10.0 mi NW 12.7 mph - N/A   Partly Cloudy
5:53 PM 28.9 °F 19.2 °F 17.1 °F 61% 29.99 in 10.0 mi WNW 11.5 mph - N/A   Scattered Clouds
6:53 PM 30.0 °F 20.5 °F 14.0 °F 51% 30.02 in 10.0 mi WNW 11.5 mph - N/A   Overcast
7:53 PM 28.0 °F 20.0 °F 17.1 °F 63% 30.05 in 10.0 mi West 8.1 mph - N/A   Clear
8:53 PM 27.0 °F 17.3 °F 12.9 °F 56% 30.07 in 10.0 mi WNW 10.4 mph - N/A   Clear
9:53 PM 25.0 °F 14.8 °F 14.0 °F 63% 30.11 in 10.0 mi NW 10.4 mph - N/A   Clear
10:53 PM 25.0 °F 14.8 °F 15.1 °F 66% 30.13 in 10.0 mi West 10.4 mph - N/A   Clear
11:53 PM 21.9 °F - 15.1 °F 75% 30.15 in 10.0 mi Calm Calm - N/A   Clear